EW2549 Weather Reports


Display with metric or nautical units.
time (UTC)temp
F
wind
direction
speed
MPH
gust
MPH
rain 1hr
in
rain 24hr
in
rain mn
in
humidity
%
barometer
mb
20260510081530 48 61 0.0 0.0 0.00 0.00 0.00 74 1014.1
20260510080013 48 60 0.0 0.0 0.00 0.00 0.00 75 1014.2
20260510074510 48 60 0.0 0.0 0.00 0.00 0.00 75 1014.5
20260510073011 48 59 0.0 0.0 0.00 0.00 0.00 74 1014.6
20260510071511 49 59 0.0 0.0 0.00 0.00 0.00 73 1014.7
20260510070008 49 59 0.0 0.0 0.00 0.00 0.00 73 1014.8
20260510064514 49 59 0.0 0.0 0.00 0.00 0.00 73 1014.7
20260510063006 49 59 0.0 0.0 0.00 0.00 0.00 73 1014.9
20260510061502 49 59 0.0 0.0 0.00 0.00 0.00 72 1014.9
20260510060057 49 59 0.0 0.0 0.00 0.00 0.00 71 1014.7
20260510054600 49 59 0.0 0.0 0.00 0.00 0.00 70 1014.7
20260510053056 50 60 0.0 0.0 0.00 0.00 0.00 69 1014.8
20260510051606 50 60 0.0 0.0 0.00 0.00 0.00 69 1014.6
20260510050058 50 59 0.0 0.0 0.00 0.00 0.00 70 1014.8
20260510044607 50 59 0.0 0.0 0.00 0.00 0.00 69 1015.0
20260510043054 50 59 0.0 0.0 0.00 0.00 0.00 68 1014.8
20260510041605 50 17 0.0 0.0 0.00 0.00 0.00 68 1014.8
20260510040053 50 24 0.0 0.0 0.00 0.00 0.00 68 1014.8
20260510034558 50 24 0.0 0.0 0.00 0.00 0.00 67 1014.6
20260510033050 50 24 0.0 5.0 0.00 0.00 0.00 67 1014.5
20260510031556 50 344 0.0 9.0 0.00 0.00 0.00 67 1014.2
20260510030055 50 319 1.0 12.0 0.00 0.00 0.00 67 1013.5
20260510024548 50 323 3.0 16.0 0.00 0.00 0.00 68 1012.3
20260510021535 52 355 3.0 14.0 0.00 0.00 0.00 67 1010.8
20260510020034 53 344 4.0 14.0 0.00 0.00 0.00 65 1010.4
20260510014532 54 92 1.0 17.0 0.00 0.00 0.00 63 1009.9
20260510013029 55 345 3.0 14.0 0.00 0.00 0.00 60 1009.0
20260510011528 57 44 3.0 19.0 0.00 0.00 0.00 56 1008.2
20260510010024 61 56 5.0 19.0 0.00 0.00 0.00 49 1007.2
20260510004522 71 5 6.0 19.0 0.00 0.00 0.00 34 1006.1
20260510003021 74 61 0.0 2.0 0.00 0.00 0.00 21 1004.4
20260510001520 73 76 0.0 0.0 0.00 0.00 0.00 21 1004.0
20260510000020 73 76 0.0 0.0 0.00 0.00 0.00 22 1003.8
20260509234533 74 61 0.0 0.0 0.00 0.00 0.00 22 1003.8
20260509233031 73 54 0.0 7.0 0.00 0.00 0.00 22 1003.6
20260509231517 74 93 0.0 5.0 0.00 0.00 0.00 22 1003.2
20260509230017 73 182 0.0 7.0 0.00 0.00 0.00 23 1003.3
20260509224518 73 113 0.0 8.0 0.00 0.00 0.00 22 1003.3
20260509223017 73 91 0.0 4.0 0.00 0.00 0.00 21 1003.1
20260509221516 73 103 0.0 5.0 0.00 0.00 0.00 23 1003.2
20260509220020 73 125 0.0 4.0 0.00 0.00 0.00 23 1003.0
20260509214514 73 84 0.0 6.0 0.00 0.00 0.00 22 1002.9
20260509213013 74 90 0.0 4.0 0.00 0.00 0.00 20 1002.8
20260509211511 73 51 0.0 5.0 0.00 0.00 0.00 23 1003.1
20260509210010 72 71 0.0 6.0 0.00 0.00 0.00 23 1003.3
20260509204509 72 49 0.0 2.0 0.00 0.00 0.00 22 1003.3
20260509203007 74 49 0.0 5.0 0.00 0.00 0.00 22 1003.5
20260509201505 73 82 0.0 4.0 0.00 0.00 0.00 22 1003.7
20260509200004 75 40 0.0 3.0 0.00 0.00 0.00 24 1003.9
20260509194501 74 67 0.0 6.0 0.00 0.00 0.00 24 1004.2
20260509193101 74 71 0.0 3.0 0.00 0.00 0.00 24 1004.3
20260509191559 74 94 0.0 3.0 0.00 0.00 0.00 24 1004.5
20260509190110 74 40 0.0 5.0 0.00 0.00 0.00 27 1004.6
20260509184605 75 40 0.0 2.0 0.00 0.00 0.00 24 1004.8
20260509183057 75 46 0.0 2.0 0.00 0.00 0.00 25 1005.0
20260509181556 76 5 0.0 11.0 0.00 0.00 0.00 21 1005.0
20260509174555 75 304 5.0 18.0 0.00 0.00 0.00 18 1005.2
20260509173100 75 248 6.0 15.0 0.00 0.00 0.00 18 1005.1
20260509171553 74 350 0.0 21.0 0.00 0.00 0.00 21 1005.5
20260509170100 75 251 1.0 11.0 0.00 0.00 0.00 18 1005.3
20260509164550 74 341 0.0 6.0 0.00 0.00 0.00 20 1005.4
20260509163057 73 69 0.0 0.0 0.00 0.00 0.00 20 1005.4
20260509161551 72 312 0.0 4.0 0.00 0.00 0.00 20 1005.6
20260509160039 71 342 0.0 3.0 0.00 0.00 0.00 20 1005.7
20260509154539 69 19 0.0 2.0 0.00 0.00 0.00 21 1005.7
20260509153037 68 254 1.0 9.0 0.00 0.00 0.00 22 1005.8
20260509151530 67 203 4.0 11.0 0.00 0.00 0.00 21 1006.0
20260509150026 66 333 1.0 11.0 0.00 0.00 0.00 25 1006.2
20260509144522 64 248 11.0 18.0 0.00 0.00 0.00 24 1006.2
20260509143020 60 252 11.0 17.0 0.00 0.00 0.00 32 1006.1
20260509141523 58 260 11.0 18.0 0.00 0.00 0.00 34 1006.0
20260509140015 56 265 2.0 11.0 0.00 0.00 0.00 38 1006.1
20260509134515 56 267 0.0 7.0 0.00 0.00 0.00 41 1006.2
20260509133013 55 259 1.0 6.0 0.00 0.00 0.00 43 1006.2
20260509131513 54 243 0.0 0.0 0.00 0.00 0.00 46 1006.2
20260509124510 51 279 0.0 0.0 0.00 0.00 0.00 54 1006.0
20260509123009 51 308 0.0 0.0 0.00 0.00 0.00 53 1005.7
20260509121509 52 308 0.0 0.0 0.00 0.00 0.00 50 1005.5
20260509120007 51 331 0.0 0.0 0.00 0.00 0.00 46 1005.4
20260509114519 51 333 0.0 0.0 0.00 0.00 0.00 47 1005.2
20260509113007 52 323 0.0 0.0 0.00 0.00 0.00 49 1005.0
20260509111507 52 323 0.0 0.0 0.00 0.00 0.00 47 1005.0
20260509110006 54 250 0.0 0.0 0.00 0.00 0.00 45 1004.8
20260509104505 56 250 0.0 0.0 0.00 0.00 0.00 42 1004.7
20260509103005 58 250 0.0 0.0 0.00 0.00 0.00 37 1004.7
20260509101506 58 251 0.0 0.0 0.00 0.00 0.00 37 1004.9
20260509100003 58 254 0.0 2.0 0.00 0.00 0.00 37 1005.0
20260509094604 57 243 0.0 9.0 0.00 0.00 0.00 38 1005.0
20260509093056 53 259 7.0 17.0 0.00 0.00 0.00 46 1005.0
20260509091558 48 317 0.0 0.0 0.00 0.00 0.00 70 1004.9
20260509084550 49 233 0.0 0.0 0.00 0.00 0.00 69 1004.7
20260509083052 49 233 0.0 0.0 0.00 0.00 0.00 67 1004.8